Faro, Portugal

4:00 AM WET on November 14, 2019 (GMT +0000)
Faro

Weather History for LPFR - September, 2019

Change the Weather History Date:

Wednesday, September 18, 2019

  Actual Average Record
Temperature  
Mean Temperature 70 °F -  
Max Temperature 77 °F 73 °F 86 °F (2006)
Min Temperature 63 °F 60 °F 57 °F (2001)
Cooling Degree Days 5    
Growing Degree Days 20 (Base 50)    
Moisture  
Dew Point 61 °F    
Average Humidity 73    
Maximum Humidity 88    
Minimum Humidity 54    
Precipitation  
Precipitation 0.00 in 0.06 in - ()
Sea Level Pressure  
Sea Level Pressure 30.01 in    
Wind  
Wind Speed 8 mph ()    
Max Wind Speed 17 mph    
Max Gust Speed -    
Visibility 7.8 miles    
Events      
Averages and records for this station are not official NWS values.
T = Trace of Precipitation, MM = Missing Value Source: Averaged Metar Reports

Daily Weather History Graph

Daily Weather History Graph

Search for Another Location

Airport or City:

Astronomy

Sep. 18, 2019 Rise Set
Actual Time 7:16 AM WEST 7:35 PM WEST
Civil Twilight 6:50 AM WEST 8:01 PM WEST
Nautical Twilight 6:19 AM WEST 8:31 PM WEST
Astronomical Twilight 5:48 AM WEST 9:02 PM WEST
Moon 10:07 PM WEST (9/18) 11:00 AM WEST (9/18)
Length of Visible Light 13h 11m
Length of Day
12h 19m
Waning Gibbous, 84% of the Moon is Illuminated
Sep 18
Waning Gibbous
Sep 22
Last Quarter
Sep 28
New
Oct 5
First Quarter
Oct 13
Full

Hourly Weather History & Observations

Time (WEST) Temp. Dew Point Humidity Pressure Visibility Wind Dir Wind Speed Gust Speed Precip Events Conditions
12:00 AM 68 °F 60 °F 67% 30.00 in - NNW 8.9 mph - -  
12:30 AM 68.0 °F 60.8 °F 78% 29.98 in - North 8.1 mph - N/A   Clear
1:00 AM 66 °F 60 °F 76% 30.01 in - West 2.3 mph - -  
1:00 AM 66.2 °F 59.0 °F 78% 29.98 in - NNW 4.6 mph - N/A   Clear
1:30 AM 64.4 °F 60.8 °F 88% 29.98 in - West 5.8 mph - N/A   Clear
2:00 AM 66 °F 60 °F 76% 30.01 in - West 4.5 mph - -  
2:00 AM 64.4 °F 60.8 °F 88% 29.98 in - West 6.9 mph - N/A   Clear
2:30 AM 66.2 °F 60.8 °F 83% 29.98 in - WNW 6.9 mph - N/A   Clear
3:00 AM 64.4 °F 59.0 °F 83% 29.98 in - NW 6.9 mph - N/A   Clear
3:30 AM 64.4 °F 59.0 °F 83% 29.98 in - NNW 5.8 mph - N/A   Clear
4:00 AM 65 °F 59 °F 75% 29.99 in 12 mi NNW 6.7 mph - -   Clear
4:00 AM 64.4 °F 59.0 °F 83% 29.98 in - NNW 4.6 mph - N/A   Clear
4:30 AM 64.4 °F 59.0 °F 83% 29.98 in - NW 6.9 mph - N/A   Clear
5:00 AM 64 °F 58 °F 77% 29.98 in - NW 4.5 mph - -  
5:00 AM 64.4 °F 59.0 °F 83% 29.95 in - NW 6.9 mph - N/A   Clear
6:00 AM 62.6 °F 59.0 °F 88% 29.98 in - West 6.9 mph - N/A   Clear
6:30 AM 64.4 °F 59.0 °F 83% 29.98 in - WNW 5.8 mph - N/A   Clear
7:00 AM 64 °F 59 °F 78% 30.01 in - WNW 3.5 mph - -  
7:00 AM 64.4 °F 59.0 °F 83% 29.98 in - West 8.1 mph - N/A   Clear
7:30 AM 64.4 °F 59.0 °F 83% 29.98 in - NW 8.1 mph - N/A   Clear
8:00 AM 64 °F 59 °F 77% 30.03 in - WNW 4.5 mph - -  
8:00 AM 64.4 °F 59.0 °F 83% 30.01 in - WNW 4.6 mph - N/A   Clear
8:30 AM 66.2 °F 59.0 °F 78% 30.01 in - WNW 4.6 mph - N/A   Clear
9:00 AM 68.0 °F 59.0 °F 73% 30.01 in - West 4.6 mph - N/A   Clear
9:30 AM 69.8 °F 57.2 °F 64% 30.01 in - West 5.8 mph - N/A   Clear
10:00 AM 72 °F 59 °F 54% 30.05 in 12 mi West 8.9 mph - -   Clear
10:00 AM 69.8 °F 59.0 °F 68% 30.01 in - West 9.2 mph - N/A   Clear
10:30 AM 71.6 °F 59.0 °F 64% 30.04 in - WSW 11.5 mph - N/A   Clear
11:00 AM 72 °F 60 °F 58% 30.06 in - WSW 11.2 mph - -  
11:00 AM 71.6 °F 60.8 °F 69% 30.04 in - WSW 11.5 mph - N/A   Clear
11:30 AM 73.4 °F 60.8 °F 65% 30.04 in 6.2 mi SW 11.5 mph - N/A   Partly Cloudy
12:00 PM 74 °F 61 °F 56% 30.05 in - WSW 13.4 mph - -  
12:00 PM 73.4 °F 60.8 °F 65% 30.04 in 6.2 mi WSW 12.7 mph - N/A   Partly Cloudy
1:00 PM 74 °F 63 °F 59% 30.04 in 12 mi WSW 15.7 mph - -   Scattered Clouds
1:00 PM 73.4 °F 60.8 °F 65% 30.01 in 6.2 mi SW 16.1 mph - N/A   Partly Cloudy
1:30 PM 73.4 °F 62.6 °F 69% 30.01 in 6.2 mi SW 16.1 mph - N/A   Partly Cloudy
2:00 PM 75 °F 62 °F 56% 30.04 in - WSW 15.7 mph - -  
2:00 PM 73.4 °F 62.6 °F 69% 30.01 in 6.2 mi SW 15.0 mph - N/A   Partly Cloudy
2:30 PM 73.4 °F 62.6 °F 69% 30.01 in 6.2 mi SW 17.3 mph - N/A   Partly Cloudy
3:00 PM 75 °F 64 °F 62% 30.03 in - WSW 15.7 mph - -  
3:00 PM 75.2 °F 64.4 °F 69% 30.01 in 6.2 mi WSW 16.1 mph - N/A   Partly Cloudy
3:30 PM 75.2 °F 64.4 °F 69% 30.01 in 6.2 mi SW 16.1 mph - N/A   Partly Cloudy
4:00 PM 75 °F 65 °F 63% 30.03 in 12 mi WSW 15.7 mph - -   Scattered Clouds
4:00 PM 73.4 °F 64.4 °F 73% 30.01 in 6.2 mi WSW 15.0 mph - N/A   Partly Cloudy
4:30 PM 73.4 °F 66.2 °F 78% 30.01 in 6.2 mi WSW 13.8 mph - N/A   Partly Cloudy
5:00 PM 74 °F 66 °F 70% 30.02 in - WSW 13.4 mph - -  
5:00 PM 73.4 °F 66.2 °F 78% 30.01 in 6.2 mi WSW 15.0 mph - N/A   Partly Cloudy
5:30 PM 73.4 °F 64.4 °F 73% 29.98 in 6.2 mi WSW 12.7 mph - N/A   Partly Cloudy
6:00 PM 74 °F 65 °F 66% 30.02 in - WSW 13.4 mph - -  
6:00 PM 73.4 °F 64.4 °F 73% 29.98 in 6.2 mi WSW 12.7 mph - N/A   Partly Cloudy
6:30 PM 71.6 °F 64.4 °F 78% 29.98 in - SW 13.8 mph - N/A   Clear
7:00 PM 72 °F 65 °F 73% 30.02 in 12 mi WSW 6.9 mph - -   Clear
7:00 PM 71.6 °F 66.2 °F 83% 29.98 in - WSW 15.0 mph - N/A   Clear
7:30 PM 71.6 °F 66.2 °F 83% 29.98 in - WSW 15.0 mph - N/A   Clear
8:00 PM 71 °F 65 °F 78% 30.02 in - WSW 15.7 mph - -  
8:00 PM 71.6 °F 66.2 °F 83% 29.98 in - WSW 16.1 mph - N/A   Clear
8:30 PM 69.8 °F 66.2 °F 88% 30.01 in - WSW 16.1 mph - N/A   Clear
9:00 PM 71.6 °F 66.2 °F 83% 30.01 in - West 15.0 mph - N/A   Clear
9:30 PM 71.6 °F 62.6 °F 73% 30.01 in - West 12.7 mph - N/A   Clear
10:00 PM 71 °F 59 °F 57% 30.04 in - NW 6.7 mph - -  
10:00 PM 71.6 °F 59.0 °F 64% 30.01 in - WNW 10.4 mph - N/A   Clear
10:30 PM 69.8 °F 57.2 °F 64% 30.01 in - NW 11.5 mph - N/A   Clear
11:00 PM 71 °F 58 °F 54% 30.04 in - NNW 6.7 mph - -  
11:00 PM 69.8 °F 57.2 °F 64% 30.01 in - NNW 10.4 mph - N/A   Clear
11:30 PM 69.8 °F 57.2 °F 64% 30.01 in - WNW 5.8 mph - N/A   Clear